Home   Weather   Rothesay   Past weeks

Flag for Canada Past Weather in Rothesay, New Brunswick, Canada — Yesterday and Last 2 Weeks

36 °F

Mostly cloudy.

Feels Like: 27 °F
Forecast: 33 / 46 °F
Wind: 13 mph from Northeast

Location: Saint John

Current Time: Oct 27, 2016 at 5:53:48 AM

Latest Report: Oct 27, 2016 at 5:00 AM

Visibility: 15 mi

Pressure: 30.40 "Hg

Humidity: 93%

Dew Point: 34 °F

Location of RothesayLocation

Past Weather in Rothesay — Graph


Rothesay Temperature Yesterday

Maximum temperature yesterday: 45 °F (at 2:00 PM)
Minimum temperature yesterday: 39 °F (at 12:00 AM)
Average temperature yesterday: 40 °F

High & Low Weather Summary for the Past Weeks

High72 °F (Oct 19, 3:00 PM)100% (Oct 12, 4:00 AM)30.45 "Hg (Oct 12, 4:00 AM)
Low27 °F (Oct 15, 4:00 AM)33% (Oct 19, 4:00 PM)29.13 "Hg (Oct 22, 4:52 PM)
Average49 °F82%29.94 "Hg
* Reported Oct 12 4:00 AM — Oct 27 4:00 AM, Rothesay, Weather by CustomWeather, © 2016

Note: Actual official high and low records may vary slightly from our data, if they occured in-between our weather recording intervals... More about our weather records


Rothesay Weather History for the Previous 24 Hours

Scroll right to see more
Time TempWeatherWind HumidityBarometerVisibility
4:00 AM
Thu, Oct 27
36 °FOvercast.18 mph93%30.39 "Hg15 mi
3:00 AM37 °FMostly cloudy.13 mph87%30.38 "Hg15 mi
2:00 AM37 °FMostly cloudy.16 mph93%30.36 "Hg15 mi
1:00 AM37 °FPassing clouds.15 mph87%30.35 "Hg15 mi
12:00 AM37 °FPassing clouds.15 mph93%30.33 "Hg15 mi
11:00 PM
Wed, Oct 26
39 °FPassing clouds.16 mph87%30.32 "Hg15 mi
10:00 PM39 °FOvercast.13 mph87%30.31 "Hg15 mi
9:00 PM39 °FMostly cloudy.16 mph87%30.29 "Hg15 mi
8:00 PM41 °FMostly cloudy.15 mph87%30.27 "Hg15 mi
7:00 PM41 °FPassing clouds.16 mph87%30.26 "Hg15 mi
6:00 PM41 °FPartly sunny.18 mph87%30.23 "Hg12 mi
5:00 PM41 °FLight rain. More clouds than sun.14 mph100%30.22 "Hg6 mi
4:00 PM43 °FLight rain. Mostly cloudy.18 mph81%30.19 "Hg10 mi
3:00 PM43 °FLight rain. Overcast.18 mph87%30.18 "Hg12 mi
2:00 PM45 °FOvercast.15 mph76%30.17 "Hg15 mi
1:00 PM43 °FMostly cloudy.17 mph81%30.16 "Hg15 mi
12:49 PM41 °FOvercast.18 mph87%30.17 "Hg15 mi
12:00 PM41 °FLight rain. Overcast.15 mph87%30.17 "Hg10 mi
11:49 AM41 °FLight rain. Overcast.15 mph87%30.17 "Hg10 mi
11:00 AM41 °FScattered showers. Low clouds.16 mph87%30.16 "Hg12 mi
10:00 AM39 °FLow clouds.17 mph93%30.15 "Hg12 mi
9:00 AM39 °FLow clouds.13 mph93%30.14 "Hg12 mi
8:00 AM39 °FLow clouds.14 mph93%30.11 "Hg8 mi
7:00 AM39 °FFog.12 mph93%30.08 "Hg5 mi
6:00 AM39 °FFog.16 mph93%30.06 "Hg5 mi
5:00 AM39 °FFog.15 mph93%30.03 "Hg4 mi
Weather by CustomWeather, © 2016

See weather overviewHow to use our weather pages